Wind_Speed
14 15 17 16 15 15 16 16 14 12 11 9 9 9 7 6 7 7 8 8 8 9 9 10 10 11 12 13 13 14 14 15 15 16 16 16 16 16 17 18 19 20
16 16 17 16 15 15 16 15 13 11 10 10 10 9 7 7 7 8 8 8 8 9 9 10 11 12 12 13 14 14 14 14 15 15 15 16 16 16 17 19 20 21
15 17 17 17 17 17 17 15 12 11 10 10 10 9 8 8 8 8 8 8 8 9 10 11 12 12 13 13 13 14 14 14 15 15 16 16 16 17 18 19 20 20
12 17 19 18 17 17 15 13 11 10 10 10 10 9 8 9 8 8 8 8 9 10 10 11 12 12 13 13 13 14 14 15 15 15 15 15 17 18 19 19 19 19
11 16 18 16 15 15 12 11 10 10 9 10 10 9 9 9 8 7 8 8 9 10 11 11 12 12 12 12 13 14 14 14 14 14 15 16 17 18 18 18 18 18
12 14 15 13 13 12 11 10 10 9 10 10 10 10 9 8 8 8 8 9 10 10 11 11 11 12 12 12 13 13 13 13 13 14 15 16 17 17 16 17 17 19
12 13 13 12 11 11 10 10 10 10 11 10 9 9 8 8 8 9 9 9 10 11 11 11 11 12 12 12 12 12 12 12 13 14 15 16 16 16 16 17 18 19
13 13 12 11 11 11 11 11 11 11 11 9 8 7 8 8 9 9 9 10 10 11 11 11 12 11 11 11 11 11 11 11 13 15 15 15 15 15 16 16 18 19
13 13 13 13 12 13 13 12 12 12 10 8 7 7 8 9 9 9 10 10 10 11 11 11 11 11 11 10 10 10 10 12 14 14 14 14 14 15 15 16 18 19
14 14 14 14 14 14 14 13 13 11 9 7 7 8 9 9 10 10 10 10 11 11 11 11 10 10 10 9 9 10 11 13 13 13 13 13 14 14 15 16 18 19
15 15 15 16 15 15 14 14 13 10 8 8 8 9 11 11 11 11 11 11 11 11 11 10 9 9 9 9 9 11 12 12 12 12 12 12 13 14 15 16 17 18
16 17 17 17 16 15 15 14 12 10 9 10 10 12 13 13 12 11 11 11 11 11 10 9 8 8 9 9 10 11 11 11 11 11 11 12 12 13 14 15 17 18
18 18 18 18 17 16 15 14 13 12 12 12 13 14 15 14 13 12 12 12 11 10 9 8 8 8 9 9 10 10 10 10 10 10 11 11 12 13 14 15 16 17
20 20 19 19 18 17 16 16 15 15 15 15 16 17 17 16 14 13 13 12 11 10 9 9 9 9 9 10 10 9 9 9 9 10 10 11 11 12 14 15 16 17
21 21 21 21 20 19 19 19 18 18 18 18 18 19 18 17 15 14 13 12 11 10 9 9 9 9 9 9 9 9 9 8 8 9 10 10 11 12 13 15 15 16
23 23 23 22 22 21 21 21 20 20 20 20 21 21 19 17 15 14 13 12 11 10 10 10 10 10 10 9 8 8 8 8 8 8 9 10 11 12 13 14 15 15
23 23 23 23 23 23 22 22 22 22 22 22 23 22 19 17 15 14 14 13 12 11 11 11 10 10 9 8 8 8 7 7 7 8 8 9 10 11 12 13 14 14
24 24 24 24 24 23 23 23 23 23 23 23 24 23 20 17 16 14 14 13 13 13 12 11 11 10 9 8 8 7 7 7 6 7 8 8 9 10 11 12 12 13
25 25 25 25 24 24 24 24 24 24 24 24 25 23 20 18 16 14 14 14 15 14 13 12 11 10 9 8 7 7 7 6 6 6 7 8 8 9 10 10 11 11
25 25 25 25 25 26 26 25 26 26 25 25 25 24 23 22 19 16 15 16 16 15 14 13 11 10 8 8 7 7 6 5 5 6 6 7 8 8 9 9 9 10
26 26 26 26 26 27 27 27 28 27 26 25 24 23 25 25 20 16 18 18 17 15 14 13 11 10 9 8 7 6 5 5 5 5 6 6 7 7 8 8 8 9
26 26 26 26 26 28 29 30 28 24 23 24 23 21 22 21 17 17 19 20 18 16 14 13 11 10 9 8 7 5 4 4 5 5 5 6 6 6 6 6 7 7
26 26 26 26 26 28 30 31 27 21 19 21 21 19 20 20 18 19 21 20 18 16 14 13 11 11 10 8 6 5 4 4 5 5 5 5 5 5 5 5 6 6
27 26 26 26 26 27 30 29 24 20 19 19 18 19 21 22 21 21 21 20 17 15 14 13 12 11 10 8 6 5 4 4 5 5 4 4 4 4 4 4 5 5
27 26 26 26 25 25 25 23 20 19 18 18 19 20 21 22 22 22 21 20 17 16 14 13 13 12 10 8 6 5 5 5 5 5 4 4 4 4 3 3 4 4
28 26 26 25 22 21 20 20 19 18 18 19 20 20 21 22 23 23 22 19 17 16 15 14 13 12 10 8 7 6 6 6 5 5 4 4 4 3 2 3 3 3
Wind_Direction
202 183 178 183 185 184 186 192 198 200 203 212 221 225 230 241 254 263 274 287 298 307 311 314 318 321 321 320 320 321 324 327 328 328 327 326 327 327 328 329 331 332
193 181 178 182 183 184 189 197 202 202 208 218 226 236 245 254 262 269 281 295 305 310 314 317 319 319 319 320 321 324 326 328 328 328 328 328 329 331 332 334 334 333
182 177 178 178 181 188 195 199 203 207 216 225 235 246 254 260 266 275 290 301 308 313 315 316 316 317 319 320 322 325 327 329 329 329 329 330 333 335 335 334 333 331
170 171 177 178 184 193 198 201 207 213 223 234 245 253 257 262 271 283 295 303 307 311 312 313 314 316 318 320 322 327 329 330 330 329 330 333 335 335 334 332 331 331
171 169 177 182 188 196 202 207 213 219 230 242 250 255 258 265 276 286 292 298 302 306 308 309 312 314 316 319 324 329 330 328 327 327 330 334 334 333 332 331 331 332
183 175 180 187 194 202 209 212 218 228 238 245 248 252 258 266 275 280 286 293 299 302 305 307 310 311 314 321 326 329 326 323 324 328 332 334 333 332 332 332 333 333
192 186 189 197 205 211 214 217 227 235 239 242 245 251 258 265 272 277 285 292 295 298 302 304 305 308 315 323 326 323 319 319 325 331 333 334 333 332 331 332 333 335
196 196 201 209 214 215 217 223 231 235 235 237 243 252 261 267 272 278 284 288 291 295 297 298 302 309 318 321 319 315 316 323 329 332 333 333 331 330 330 332 334 338
202 206 210 214 215 217 220 225 230 231 229 232 244 257 266 271 276 280 282 284 287 289 291 295 302 312 316 314 311 311 320 328 330 331 331 330 328 328 330 333 338 341
208 210 212 214 215 218 221 225 227 225 226 236 252 267 273 276 278 278 277 278 281 284 287 295 304 310 309 306 306 314 324 328 328 329 328 326 326 328 332 338 341 343
213 213 214 215 217 219 220 223 223 223 232 247 262 274 278 279 276 273 272 273 275 279 286 295 302 303 301 300 307 317 323 323 324 325 324 324 327 332 337 342 343 343
217 216 217 217 217 218 217 220 223 229 242 254 265 274 277 277 273 270 269 269 272 278 286 293 295 293 292 298 309 315 317 318 321 322 321 325 331 337 341 343 342 343
221 218 218 218 216 217 219 225 232 240 249 257 265 272 275 275 271 268 266 266 270 277 282 286 284 281 287 299 307 308 310 315 318 319 321 329 337 340 342 342 342 342
223 220 218 217 217 220 226 233 240 246 252 257 263 268 271 271 268 264 262 263 268 273 274 273 270 274 287 297 300 301 306 312 315 319 326 335 341 341 341 341 341 340
225 222 220 219 220 224 231 238 244 250 254 256 259 263 265 265 263 260 259 261 264 264 263 260 261 273 286 289 290 295 302 308 316 323 330 338 341 340 341 341 339 338
226 226 226 226 227 231 237 242 247 251 254 255 257 260 261 259 257 254 254 257 258 255 251 251 260 273 279 281 284 290 298 307 319 327 334 340 341 340 341 340 337 339
228 229 230 232 234 238 242 245 249 252 253 254 256 258 257 253 249 248 250 252 251 247 244 248 262 271 270 272 279 286 296 309 321 331 337 341 340 341 341 337 336 341
228 230 232 235 238 242 245 247 250 253 254 256 257 258 254 247 242 243 246 248 245 240 242 251 261 263 261 266 275 284 296 310 324 333 337 338 338 340 339 334 337 344
230 232 234 237 240 242 245 248 252 255 257 259 260 258 250 239 237 240 244 244 240 236 241 253 255 251 253 262 272 283 295 310 326 333 334 335 337 338 334 332 339 345
232 233 235 238 241 243 246 250 255 258 258 260 262 260 248 233 228 236 242 238 234 235 243 249 245 244 251 261 270 281 294 312 326 330 329 330 334 334 330 333 341 344
236 236 238 241 243 246 248 250 254 257 258 261 264 261 248 233 220 225 236 233 230 236 241 240 237 240 250 257 264 276 294 313 321 321 320 324 330 329 327 335 342 342
240 239 241 244 248 252 255 256 260 266 265 263 262 254 245 235 220 222 232 230 229 235 234 230 232 239 246 252 258 272 292 306 309 307 309 318 324 322 324 335 340 341
242 242 243 247 251 257 262 263 267 276 273 263 255 240 228 226 223 223 226 227 229 231 225 223 231 237 241 247 254 268 285 291 293 293 299 312 315 313 321 331 335 341
244 246 247 250 256 264 269 267 268 272 268 253 238 220 213 220 224 221 221 225 227 224 219 222 230 235 238 244 251 263 273 273 276 280 288 302 302 301 316 326 329 340
248 251 254 258 264 270 270 266 264 264 254 236 224 217 218 224 225 219 220 224 223 218 217 223 228 232 237 242 248 256 259 258 262 268 276 284 283 286 306 314 319 339
253 256 258 260 265 268 265 262 261 254 236 225 224 226 227 227 222 219 222 224 219 215 218 222 226 231 237 243 247 249 249 248 251 255 258 262 262 267 284 294 307 335
Height
3148 3149 3151 3152 3154 3156 3158 3159 3159 3160 3161 3162 3163 3163 3164 3165 3165 3164 3164 3164 3164 3164 3163 3163 3162 3162 3162 3162 3161 3161 3160 3160 3159 3159 3158 3157 3156 3155 3154 3153 3152 3151
3147 3149 3150 3152 3154 3156 3157 3158 3158 3159 3160 3161 3161 3162 3163 3163 3163 3163 3162 3162 3162 3162 3161 3161 3161 3161 3160 3160 3159 3159 3159 3158 3158 3157 3157 3156 3155 3154 3153 3152 3151 3150
3146 3148 3150 3151 3153 3155 3156 3157 3157 3158 3159 3160 3160 3160 3161 3161 3161 3161 3161 3160 3160 3160 3160 3160 3159 3159 3159 3158 3158 3158 3157 3157 3156 3156 3155 3154 3153 3152 3151 3151 3149 3148
3145 3147 3149 3151 3152 3154 3155 3155 3156 3157 3157 3158 3158 3159 3159 3159 3159 3159 3159 3158 3158 3158 3158 3158 3158 3157 3157 3157 3156 3156 3155 3155 3155 3154 3153 3153 3152 3151 3150 3149 3148 3147
3144 3146 3148 3149 3151 3152 3153 3154 3155 3155 3156 3156 3156 3157 3157 3157 3157 3157 3157 3157 3157 3157 3157 3156 3156 3156 3156 3155 3155 3154 3154 3154 3153 3153 3152 3152 3151 3150 3149 3148 3146 3145
3143 3145 3147 3148 3150 3151 3152 3152 3153 3154 3154 3154 3155 3155 3155 3155 3156 3155 3155 3155 3155 3155 3155 3155 3155 3154 3154 3154 3153 3153 3153 3153 3152 3152 3151 3151 3150 3149 3148 3146 3145 3144
3142 3144 3145 3147 3148 3149 3150 3151 3151 3152 3152 3153 3153 3153 3154 3154 3154 3154 3154 3153 3154 3154 3153 3153 3153 3153 3153 3152 3152 3152 3152 3152 3151 3151 3150 3150 3149 3148 3146 3145 3144 3142
3141 3143 3144 3146 3147 3148 3148 3149 3150 3150 3151 3151 3151 3151 3152 3152 3152 3152 3152 3152 3152 3152 3152 3152 3152 3152 3151 3151 3151 3151 3151 3151 3150 3150 3149 3148 3147 3146 3145 3144 3142 3141
3140 3142 3143 3144 3145 3146 3147 3147 3148 3148 3149 3149 3149 3150 3150 3150 3150 3150 3150 3150 3150 3150 3151 3151 3150 3150 3150 3150 3150 3150 3150 3150 3149 3149 3148 3147 3146 3145 3144 3143 3141 3140
3139 3140 3141 3142 3143 3144 3145 3146 3146 3146 3147 3147 3148 3148 3148 3148 3148 3149 3149 3149 3149 3149 3149 3149 3149 3149 3149 3149 3149 3149 3149 3148 3148 3148 3147 3146 3145 3144 3143 3141 3140 3138
3137 3138 3139 3140 3141 3142 3143 3144 3144 3145 3145 3146 3146 3146 3147 3147 3147 3147 3147 3147 3148 3147 3147 3147 3147 3147 3147 3148 3148 3148 3148 3147 3147 3147 3146 3145 3144 3143 3141 3140 3139 3137
3136 3137 3137 3138 3139 3140 3141 3142 3142 3143 3144 3144 3145 3145 3145 3145 3146 3146 3146 3146 3146 3146 3146 3146 3146 3146 3146 3147 3147 3147 3146 3146 3146 3146 3145 3144 3143 3141 3140 3139 3137 3136
3134 3135 3136 3137 3138 3138 3139 3140 3141 3142 3142 3143 3143 3144 3144 3144 3144 3144 3144 3144 3144 3144 3144 3144 3144 3145 3145 3146 3146 3145 3145 3145 3145 3144 3143 3142 3141 3140 3139 3137 3136 3136
3132 3133 3134 3135 3136 3137 3138 3138 3139 3140 3141 3141 3142 3142 3142 3142 3142 3142 3143 3143 3143 3142 3142 3143 3143 3144 3144 3144 3145 3144 3144 3144 3144 3143 3142 3141 3140 3139 3137 3136 3135 3135
3130 3131 3132 3133 3134 3135 3136 3136 3137 3138 3138 3139 3139 3139 3140 3140 3140 3141 3141 3141 3141 3141 3141 3142 3142 3143 3143 3143 3143 3143 3143 3143 3142 3141 3140 3140 3139 3137 3136 3135 3134 3134
3128 3129 3131 3132 3132 3133 3134 3134 3135 3135 3136 3136 3137 3137 3137 3138 3138 3139 3139 3139 3139 3140 3140 3140 3141 3141 3142 3142 3142 3142 3142 3141 3141 3140 3139 3138 3137 3136 3135 3134 3134 3133
3126 3127 3129 3130 3130 3131 3131 3132 3132 3132 3133 3134 3134 3135 3135 3136 3136 3137 3137 3138 3138 3138 3139 3139 3139 3140 3140 3141 3141 3141 3140 3140 3139 3138 3138 3137 3136 3135 3134 3133 3132 3131
3124 3125 3126 3127 3128 3128 3129 3129 3129 3130 3130 3131 3132 3132 3133 3134 3134 3135 3136 3136 3137 3137 3137 3138 3138 3138 3139 3139 3139 3139 3139 3138 3138 3137 3136 3136 3135 3134 3134 3133 3132 3130
3121 3122 3124 3124 3125 3125 3126 3126 3127 3127 3128 3129 3129 3130 3131 3131 3132 3133 3134 3135 3136 3136 3136 3136 3136 3137 3137 3138 3138 3138 3137 3137 3136 3136 3135 3135 3134 3134 3133 3132 3131 3130
3118 3120 3121 3121 3122 3122 3123 3124 3124 3125 3126 3127 3127 3128 3128 3128 3129 3131 3133 3133 3134 3134 3134 3134 3135 3135 3136 3136 3136 3136 3136 3135 3135 3134 3134 3134 3133 3133 3132 3131 3130 3129
3116 3117 3118 3119 3120 3120 3120 3121 3121 3122 3123 3124 3125 3126 3126 3125 3125 3128 3131 3132 3132 3132 3133 3133 3133 3134 3134 3135 3135 3135 3134 3134 3133 3133 3133 3133 3132 3132 3131 3130 3129 3129
3113 3115 3116 3117 3117 3118 3118 3119 3119 3120 3121 3122 3122 3123 3124 3125 3125 3126 3129 3130 3130 3131 3131 3131 3131 3132 3133 3133 3133 3133 3133 3132 3132 3132 3132 3132 3131 3131 3130 3129 3129 3128
3110 3112 3113 3114 3115 3116 3116 3117 3118 3118 3118 3118 3119 3119 3122 3123 3124 3125 3126 3128 3128 3128 3129 3129 3130 3130 3131 3132 3132 3131 3131 3131 3131 3131 3131 3131 3130 3130 3129 3128 3128 3127
3108 3109 3110 3112 3113 3114 3114 3114 3115 3115 3115 3115 3116 3117 3119 3120 3121 3123 3124 3125 3126 3126 3127 3127 3128 3129 3129 3130 3130 3130 3130 3130 3130 3130 3130 3129 3129 3129 3128 3127 3127 3126
3106 3107 3108 3110 3111 3111 3111 3111 3111 3112 3112 3113 3114 3116 3117 3118 3120 3121 3122 3123 3123 3124 3125 3126 3127 3127 3128 3128 3128 3128 3128 3129 3129 3129 3128 3128 3128 3127 3127 3126 3126 3125
3103 3104 3105 3107 3108 3108 3108 3108 3109 3109 3110 3111 3113 3114 3115 3117 3118 3119 3120 3121 3121 3122 3123 3124 3125 3125 3126 3126 3126 3127 3127 3127 3127 3127 3127 3127 3127 3126 3126 3125 3125 3124